Location: Laverne
(36.7100°N, 99.8930°W)
Time: 23:27:33
(UTC-05:00)

Daily predictions for brighter satellites

Satellite Brightness Start Highest point End
(mag) Time Altitude Azimuth Time Altitude Azimuth Time Altitude Azimuth
Cosmos 1048 Rocket 4.3 19:09:26 10° S 19:14:15 43° ESE 19:19:04 10° NNE
YAOGAN 1 2.8 19:11:58 10° SSE 19:16:06 47° ENE 19:20:16 10° N
Cosmos 1726 3.5 19:15:29 10° SE 19:18:08 19° E 19:20:47 10° NE
CZ-4 R/B 1.4 19:15:45 10° SSE 19:19:57 79° ENE 19:24:07 10° N
SL-24 R/B - RUBIN 2 3.6 19:16:49 10° NNW 19:21:36 84° ENE 19:25:57 10° SSE
ASTRO E2 4.2 19:19:17 10° WSW 19:22:50 31° S 19:26:23 10° SE
Cosmos 1420 Rocket 4.2 19:17:52 10° N 19:23:03 50° ENE 19:28:08 10° SE
EO 1 Del DPAF 3.3 19:20:48 10° NNE 19:24:36 57° E 19:28:21 10° S
DELTA 2 R/B (1) 3.7 19:21:01 10° WNW 19:26:36 84° SSW 19:32:12 10° ESE
Landsat 4 4.2 19:24:31 10° N 19:28:12 63° WNW 19:31:53 10° SSW
Cosmos 2322 3.7 19:22:43 10° NNW 19:28:28 77° ENE 19:34:09 10° SSE
CZ-2C R/B 4.0 19:24:03 10° N 19:28:31 70° WNW 19:32:55 10° SSW
IRS-1A Rocket 4.4 19:24:56 10° SSE 19:30:48 88° ENE 19:36:44 10° NNW
CZ-4 R/B 4.4 19:27:48 10° SSE 19:31:54 66° ENE 19:36:01 10° N
Cosmos 2219 Rocket 3.0 19:29:48 10° N 19:34:36 28° ENE 19:39:24 10° ESE
Cosmos 1821 Rocket 4.3 19:30:03 10° SSE 19:35:49 44° E 19:41:41 10° NNE
METEOR-M 4.2 19:31:17 10° SSE 19:36:31 59° ENE 19:41:46 10° N
Cosmos 2221 2.5 19:32:18 10° S 19:36:34 63° E 19:40:53 10° NNE
Meteor 1-28 Rocket 4.1 19:34:34 10° N 19:38:16 53° WNW 19:41:54 10° SSW
Delta 2 Rocket 3.2 19:34:28 10° W 19:38:31 69° S 19:41:39 13° ESE
ALOS 2.8 19:35:21 10° SE 19:39:33 35° ENE 19:43:48 10° N
Cosmos 1315 Rocket 2.8 19:37:35 10° N 19:41:42 82° E 19:45:49 10° S
Cosmos 921 Rocket 3.1 19:39:19 10° NNW 19:43:45 82° WSW 19:48:04 10° S
Thor Agena Rocket 4.2 19:40:31 10° NE 19:44:56 30° E 19:49:18 10° SSE
SKYMED 2 3.5 19:41:03 10° NNE 19:45:25 84° ESE 19:49:45 10° S
GP-B 3.9 19:44:33 10° N 19:48:54 54° W 19:53:13 10° SSW
Cosmos 1908 4.2 19:54:17 10° SSW 19:58:05 50° W 20:01:54 10° N
MONITOR-E 4.5 19:58:03 10° S 20:01:06 67° W 20:04:10 10° NNW
Cosmos 2333 4.2 19:58:41 10° NNW 20:04:27 80° ENE 20:10:12 10° SSE
Molniya-1 4.2 20:03:36 10° SW 20:04:19 21° SW 20:04:19 21° SW
H-2A R/B 3.5 20:07:18 29° E 20:07:57 31° ENE 20:11:25 10° N
Aureole 2 Rocket 2.7 20:05:21 10° N 20:09:18 61° ENE 20:13:20 10° SSE
Cosmos 2123 Rocket 4.2 20:03:21 10° N 20:09:20 46° E 20:15:19 10° SSE
Cosmos 1269 Rocket 4.4 20:04:18 10° SSW 20:09:31 65° WNW 20:14:47 10° NNE
Cosmos 1605 Rocket 4.2 20:04:42 10° SSE 20:10:21 41° E 20:15:59 10° NNE
Cosmos 2237 Rocket 2.9 20:06:58 10° N 20:12:01 31° ENE 20:13:39 27° E
Cosmos 2227 Rocket 2.4 20:11:14 10° S 20:16:37 47° ESE 20:21:11 14° NE
SWAS 4.4 20:12:42 10° S 20:16:52 57° ESE 20:19:08 25° NE
Iridium 4 Rocket 4.1 20:15:30 10° S 20:21:03 70° W 20:26:57 10° N
SPOT 3 Rocket 4.1 20:16:33 10° S 20:21:40 60° WSW 20:26:50 10° NNW
Cosmos 1300 2.6 20:18:08 10° S 20:21:58 88° E 20:25:48 10° N
SL-16 R/B 3.9 20:20:55 10° NNE 20:23:15 16° NE 20:23:15 16° NE
Atlas Centaur 2 3.8 20:21:51 10° WSW 20:25:02 19° SSW 20:28:27 11° SSE
NOSS 0 Rocket 3.9 20:19:01 10° NNW 20:25:05 57° ENE 20:28:59 22° SE
Gbstr 26 Del rocket 3.6 20:21:20 10° NW 20:26:32 77° NE 20:29:43 30° ESE
Cosmos 494 Rocket 3.8 20:22:30 10° S 20:27:35 72° ESE 20:32:40 10° NNE
Sich 1 2.9 20:24:21 10° N 20:28:45 80° E 20:33:10 10° S
Cosmos 1980 3.8 20:31:04 10° NNW 20:36:37 53° ENE 20:37:55 44° ESE
Cosmos 1110 Rocket 3.9 20:33:57 10° NNW 20:39:16 73° ENE 20:41:40 33° SSE
FENGYUN 3A 4.2 20:35:48 10° S 20:41:06 58° W 20:46:27 10° NNW
BREEZE-M R/B 2.9 20:38:41 10° WSW 20:41:04 52° NW 20:41:04 52° NW
CZ-4C R/B 3.6 20:36:45 10° WSW 20:41:28 33° NW 20:46:45 10° NNE
Meteor 2-3 Rocket 4.4 20:38:39 10° N 20:42:50 37° NE 20:42:50 37° NE
PSLV R/B 4.5 20:42:00 10° W 20:44:12 37° WNW 20:44:12 37° WNW
Hubble Space Telescope 2.4 20:42:37 10° SW 20:45:28 23° S 20:45:28 23° S
USA 32 4.3 20:41:09 10° N 20:45:20 47° NE 20:45:20 47° NE
COSMOS 2428 3.9 20:41:06 10° NW 20:46:25 41° WSW 20:51:42 10° S
Cosmos 2228 Rocket 4.0 20:43:21 10° S 20:46:04 36° SSE 20:46:04 36° SSE
Cosmos 2333 Rocket 2.2 20:43:42 10° NNW 20:49:28 81° WSW 20:53:15 22° SSE
Cosmos 2297 Rocket 2.0 20:48:07 10° SSW 20:53:46 83° ESE 20:56:00 39° NNE
Cosmos 1666 Rocket 4.3 20:50:11 10° NNW 20:54:23 51° W 20:58:33 10° SSW
Cosmos 1328 Rocket 3.6 20:51:21 10° SSW 20:55:45 75° W 20:57:04 44° N
Cosmos 1633 Rocket 3.6 20:54:40 10° NNW 20:59:01 57° W 21:02:06 18° SSW
Cosmos 2251 Rocket 3.6 20:58:22 10° SSW 21:03:38 73° WNW 21:06:04 33° N
Cosmos 2082 3.7 20:58:35 10° SSW 21:04:18 82° WNW 21:06:19 42° NNE
Cosmos 2219 Rocket 3.6 21:13:30 10° NW 21:18:33 36° WSW 21:23:27 11° SSW
USA 267 3.3 21:35:57 67° SW 21:35:57 67° SW 21:41:29 10° SW
Cosmos 2237 Rocket 3.7 21:50:58 10° NW 21:55:32 33° W 21:55:32 33° W
Cosmos 2227 Rocket 4.3 21:56:30 10° WSW 22:00:53 23° WNW 22:03:08 18° NNW
SL-16 R/B 4.3 22:03:32 10° NNW 22:05:09 20° NNW 22:05:09 20° NNW
